Карточка аэропорта URKK

Внимание!
Информация на этой странице в стадии наполнения.
Если вы не увидели какой-то информации, или заметили неточность - пожалуйста сообщите нам!
Спасибо!
Команда RU-STAFF
Название аэропортаПашковский
Название аэропорта (англ.)Pashkovskiy
Превышение120 ft. (36.6 m.)
Координаты45°2.0820000000001', 39°10.218'
Высота перехода4000 ft
Эшелон переходаFL60 (QNH >= 977); FL70 (QNH < 977)
Коды ответчика1030-1037
Зона ОрВДРостов-на-Дону РПИ (URRV)
Данные METARURKK 290330Z 07006MPS 9999 OVC011 04/03 Q1023 R05R/CLRD70 TEMPO SCT006 BKN016 RMK QFE764
Проноз погоды (TAF)URKK 290152Z 2903/3003 05008G13MPS 9999 BKN016 TEMPO 2903/3003 07013G18MPS SCT007 BKN016
NOTAMshow/hide NOTAM
AWOS   TABLE

Информация о ВПП

ВПП Длина ВПП (м.) Покрытие Курс ВПП Частота ILS
05L2200Асфальтобетон46 
05R3000Железобетон46 
23L3000Железобетон226 
23R2200Асфальтобетон226 

Диспетчерские позиции

Позывной Наименование органа УВД Частота
URKK_APPКраснодар-Подход129.6
URKK_R_APPКраснодар-Круг121.3
URKK_TWRКраснодар-Вышка118.2
URKK_GNDКраснодар-Руление119.0



Спутниковое изображение